Regional Weather Roundup
Issued by NWS

Home | Current Version | Previous Version | Graphics & Text | Print | Product List | Glossary On
Versions: 1 2 3 4 5 6 7 8 9 10 11 12 13 14 15 16 17 18 19 20 21 22 23 24 25 26 27 28 29 30 31 32 33 34 35 36 37 38 39 40 41 42 43 44 45 46 47 48 49 50
000
ASUS45 KBOU 070207
RWRCO

WEATHER ROUNDUP FOR COLORADO
NATIONAL WEATHER SERVICE DENVER/BOULDER CO
700 PM MST FRI MAR 06 2015

NOTE: "FAIR" INDICATES FEW OR NO CLOUDS BELOW 12000 FEET WITH NO
SIGNIFICANT WEATHER AND/OR OBSTRUCTIONS TO VISIBILITY.

COZ001>005-013-030-031-070300-
...NORTHWEST COLORADO...

CITY           SKY/WX    TMP DP  RH WIND       PRES   REMARKS
CRAIG          CLEAR     34  21  59 CALM      30.37R
HAYDEN         CLEAR     30  14  51 SE12      30.38R WCI  21
MEEKER         CLEAR     36  20  52 NE8       30.35R
MOUNT WERNER   NOT AVBL
STEAMBOAT SPGS CLEAR     32  15  50 E5        30.38R WCI  27
WALDEN         CLEAR     25  10  54 S6        30.35S WCI  18
$$

COZ006>008-011-070300-
...WEST CENTRAL VALLEYS...

CITY           SKY/WX    TMP DP  RH WIND       PRES   REMARKS
GRAND JUNCTION CLEAR     40  21  46 N5        30.31F
MONTROSE       CLEAR     42  25  50 CALM      30.36R
EAGLE          CLEAR     37  19  48 SE6       30.36R
RIFLE          CLEAR     39  22  50 S8        30.33R
DELTA          CLEAR     46  19  33 CALM      30.34S
NUCLA          CLEAR     45  19  36 NW5       30.35S
$$

COZ017>023-064>068-070300-
...SOUTHWEST COLORADO...

CITY           SKY/WX    TMP DP  RH WIND       PRES   REMARKS
DURANGO        CLEAR     33  21  61 CALM      30.31R
CORTEZ         CLEAR     42  28  57 CALM      30.31S
PAGOSA SPRINGS CLEAR     33  18  53 CALM      30.34S
TELLURIDE      CLEAR     34  10  37 CALM      30.39S
WOLF CREEK PAS PTCLDY    23   3  42 SW8       30.45S WCI  14
$$

COZ009-010-012-014-032>034-037-058>063-070300-
...CENTRAL COLORADO...

CITY           SKY/WX    TMP DP  RH WIND       PRES   REMARKS
ASPEN          PTCLDY    31  17  56 SW8       30.37R WCI  23
BUENA VISTA    PTCLDY    37  13  37 W9        30.32R
COPPER MTN     CLEAR     25   7  46 W8        30.41S WCI  16
BERTHOUD PASS  NOT AVBL
COTTONWOOD PAS PTCLDY    37   1  22 W15G23    30.36R
GUNNISON       PTCLDY    25   9  50 N6        30.41S WCI  18
KREMMLING      CLEAR     28  19  69 CALM      30.39R
LEADVILLE      PTCLDY    25   7  46 N5        30.37R WCI  19
SALIDA         PTCLDY    43   8  23 W10G21    30.39R
SUNLIGHT       CLEAR     27  18  69 CALM        N/A
WILKERSON PASS PTCLDY    28   3  34 W9G17     30.40S WCI  20
$$

COZ069>075-070300-
...SAN LUIS VALLEY/SANGRE DE CRISTO MOUNTAINS...

CITY           SKY/WX    TMP DP  RH WIND       PRES   REMARKS
ALAMOSA        CLEAR     34  19  54 NW7       30.33R WCI  28
LA VETA PASS   CLEAR     30   1  29 S8G21     30.35S WCI  23
SAGUACHE       PTCLDY    30  21  69 N6        30.35S WCI  24
$$

COZ035-036-038>040-070300-
...NORTHERN COLORADO FRONT RANGE...

CITY           SKY/WX    TMP DP  RH WIND       PRES   REMARKS
DENVER INTL AP CLEAR     37  25  61 SE9       30.24R
DMNS CITY PARK   N/A     43  22  43 NW3       30.25R
AURORA         NOT AVBL
FRONT RANGE AP NOT AVBL
ERIE MUNI ARPT CLEAR     36  24  63 CALM      30.25R
BOULDER MUN AP CLEAR     39  23  52 W5        30.24S
CENTENNIAL     CLEAR     41  21  44 SE5       30.24R
BROOMFIELD     CLEAR     45  19  36 NW9       30.24S
FORT COLLINS   CLEAR     45  18  33 CALM      30.26R
LONGMONT       CLEAR     37  24  59 W8        30.27R
$$

COZ041-046-047-076>085-087-088-070300-
...PIKES PEAK/PALMER DIVIDE AND SOUTHERN FOOTHILLS...

CITY           SKY/WX    TMP DP  RH WIND       PRES   REMARKS
COLO. SPRINGS  CLEAR     43  19  38 SE5       30.27R
A. F. ACADEMY  CLEAR     38  21  51 N6        30.26R
ELLICOTT       NOT AVBL
FALCON         CLEAR     33  20  56 CALM      30.29R
FORT CARSON    CLEAR     42  23  46 W6        30.25R
LIMON          CLEAR     29  22  75 W6        30.26R WCI  23
MONUMENT HILL  CLEAR     32  21  64 S9        30.26S WCI  24
TRINIDAD       CLEAR     50  22  33 N5        30.25R
$$

COZ042>045-048>051-090-091-070300-
...NORTHEAST COLORADO...

CITY           SKY/WX    TMP DP  RH WIND       PRES   REMARKS
GREELEY ARPT   CLEAR     37  23  56 NW8       30.23R
AKRON          CLEAR     42  16  34 NE5       30.23R
BURLINGTON     CLEAR     34  23  64 SW10      30.24R WCI  26
WRAY           CLEAR     38  20  47 W9        30.22R
STERLING       CLEAR     41  21  45 N7        30.22R
HOLYOKE        CLEAR     41  18  38 W10       30.21R
FORT MORGAN    CLEAR     38  15  38 E7        30.24R
$$

COZ086-089-092>099-070300-
...SOUTHEAST COLORADO...

CITY           SKY/WX    TMP DP  RH WIND       PRES   REMARKS
PUEBLO         CLEAR     39  29  67 NE7       30.22R
LA JUNTA       CLEAR     44  32  62 NE8       30.22R
LAMAR          CLEAR     45  29  53 E5        30.21R
SPRINGFIELD      N/A     38  24  57 S7        30.24R
$$


USA.gov is the U.S. government's official web portal to all federal, state and local government web resources and services.